Location: Newark
(50.4348°N, 30.5552°E)
Time: 20:45:38
(UTC+00:00)

Courier 1B Rocket - Pass Details

Date: 29 January 2020
Orbit: 920 x 1202 km, 28.2° (Epoch: 22 February)

Event Time Altitude Azimuth Distance (km) Brightness Sun altitude
Rises 08:46:13 0° 219° (SW) 4,014 8.6 19.0°
Reaches altitude 10° 08:52:27 10° 181° (S) 2,977 9.1 19.4°
Maximum altitude 08:53:28 10° 173° (S) 2,940 9.5 19.4°
Drops below altitude 10° 08:54:28 10° 165° (SSE) 2,949 9.9 19.5°
Sets 09:00:24 0° 127° (SE) 3,814 9.0 19.8°
